Regional Weather Roundup
Issued by NWS New Orleans/Baton Rouge, LA

Home | Current Version | Previous Version | Graphics & Text | Print | Product List | Glossary On
Versions: 1 2 3 4 5 6 7 8 9 10 11 12 13 14 15 16 17 18 19 20 21 22 23 24 25 26 27 28 29 30 31 32 33 34 35 36 37 38 39 40 41 42 43 44 45 46 47 48 49 50
652
ASUS44 KLIX 240501
RWRLIX
NEW ORLEANS REGIONAL WEATHER ROUNDUP
NATIONAL WEATHER SERVICE NEW ORLEANS LA
1200 AM CDT THU APR 24 2014

NOTE: "FAIR" INDICATES FEW OR NO CLOUDS BELOW 12,000 FEET WITH NO
      SIGNIFICANT WEATHER AND/OR OBSTRUCTIONS TO VISIBILITY.
      SKY/WX - SKY CONDITION AND SIGNIFICANT WEATHER.
      TMP - AIR TEMPERATURE.     DP    - DEWPOINT TEMPERATURE.
      RH  - RELATIVE HUMIDITY.   PRES  - PRESSURE.
      HI  - HEAT INDEX.          WCI   - WIND CHILL INDEX.

*  THESE STATIONS ARE NOT NWS OR FAA STATIONS AND ARE NOT UNDER
   NWS QUALITY CONTROL.

LAZ038-040-048-061>063-065>067-069-240600-
SOUTHEAST LOUISIANA

CITY           SKY/WX    TMP DP  RH WIND       PRES   REMARKS
N.O. AUDUBON     N/A     71  67  87 MISG        N/A
N.O. INTL ARPT PTCLDY    67  64  90 S5        29.92F
N.O. LAKEFRONT CLEAR     71  65  81 SW5       29.92F
N.O. DOWNTOWN*   N/A     73  63  68 S5        29.93F
SLIDELL        CLEAR     63  59  87 CALM      29.92F
BATON ROUGE    CLEAR     68  61  78 S5        29.92S
BOOTHVILLE     CLEAR     69  67  93 S6        29.94S
BELLE CHASSE   NOT AVBL
BOGALUSA*        N/A     62  58  86 CALM      29.93F
GALLIANO*      NOT AVBL
NEW ROADS*     NOT AVBL
GONZALES*      NOT AVBL
HAMMOND*       NOT AVBL
HOUMA*           N/A     63  61  93 S3        29.92F FOG
PORT FOURCHON* CLEAR     72  66  83 S7        29.94F

$$

MSZ070-080>082-240600-
SOUTHERN MISSISSIPPI

CITY           SKY/WX    TMP DP  RH WIND       PRES   REMARKS
MCCOMB         CLEAR     59  53  80 VRB3      29.92S
GULFPORT       PTCLDY    72  66  81 S3        29.92S
BILOXI         NOT AVBL
PASCAGOULA     CLEAR     63  63 100 CALM      29.93S FOG

$$

COASTAL OBSERVATIONS
LAKE AND NEARSHORE STATIONS

STATION/POSITION TIME  TEMP    WIND        PRES    WAVE
                       AIR SEA DIR/SP/G            HT/PER
                 (UTC) (F)     (DEG/KT/KT) (MB)    (FT/S)
PASCAGOULA       0400   71     210/  5/  6 1013.0
WAVELAND YACHT   0400   71 75  210/  4/  6 1012.7
GRAND ISLE       0400   71 72  220/  4/  5 1014.2
SOUTHWEST PASS   0400   67 60  200/  6/  7 1014.3
NEW CANAL        0400   72 73  210/  6/  7 1013.8
SHELL BEACH      0400   71 70  200/  6/  8 1013.4

OFFSHORE STATIONS

STATION/POSITION TIME  TEMP    WIND        PRES    WAVE
                       AIR SEA DIR/SP/G            HT/PER
                 (UTC) (F)     (DEG/KT/KT) (MB)    (FT/S)
64 S DAUPHIN ISL 0441   70 72  210/  8/  8 1014.2

$$




USA.gov is the U.S. government's official web portal to all federal, state and local government web resources and services.